Theta_e
320 321 321 322 324 326 325 326 325 326 327 327 328 327 327 327 329 331 332 335 338 344 344 347 349 348 348 348 347 344 341 340 342 344 343 345 344 344 341 340 338 336 334
321 321 321 323 323 323 323 323 324 325 325 326 326 327 327 326 327 329 331 333 336 342 344 345 348 348 348 347 346 343 342 343 343 341 342 342 343 341 339 337 335 334 334
322 322 322 322 321 322 322 322 322 323 323 324 324 326 326 326 326 327 331 333 336 339 344 344 345 346 348 346 347 345 343 342 341 341 342 341 340 338 336 335 334 334 333
323 321 322 321 321 321 321 320 320 321 322 322 323 324 325 325 326 327 330 333 336 338 339 344 343 345 346 342 346 345 340 340 340 340 339 340 338 337 336 334 334 333 332
325 322 321 321 321 320 319 319 319 320 319 320 321 322 323 324 326 329 330 333 336 337 339 341 340 343 344 346 345 342 340 339 339 339 340 338 336 335 336 333 333 332 331
326 323 321 320 320 319 318 317 318 319 320 320 322 323 322 324 326 329 331 334 335 335 337 338 340 343 342 343 343 341 339 339 337 338 338 337 337 335 335 333 333 331 330
325 322 320 319 320 318 318 318 318 318 319 320 318 319 322 325 326 327 328 331 332 333 336 338 340 342 340 342 339 339 339 338 339 337 337 336 336 335 334 333 332 331 329
325 322 320 320 319 318 317 317 318 317 318 320 317 317 315 320 324 328 327 328 331 335 335 337 337 338 337 336 336 339 338 340 339 336 336 335 336 334 333 332 331 330 329
325 324 322 321 320 318 316 317 318 319 317 318 320 318 314 312 319 325 328 328 330 334 334 336 334 334 336 333 335 338 338 337 336 333 333 333 335 333 333 332 331 330 330
324 323 323 321 320 318 317 317 319 320 320 318 320 323 321 322 317 315 325 327 331 331 331 334 331 333 333 334 336 338 334 332 331 332 332 332 334 333 332 332 331 330 329
325 323 322 320 319 319 319 318 319 319 321 320 321 322 322 323 323 322 316 322 327 329 331 332 332 332 333 332 333 333 331 331 331 333 334 335 334 333 332 331 330 329 328
322 322 321 321 320 320 319 319 320 320 320 321 323 325 323 319 320 320 320 320 321 326 329 331 331 331 331 330 333 332 331 330 329 330 332 329 334 334 332 331 330 329 329
320 319 320 320 321 321 321 321 321 321 321 322 323 324 323 323 324 325 324 321 320 324 326 329 330 331 331 330 332 333 332 327 325 325 327 329 331 330 332 331 330 330 328
318 319 321 322 323 324 323 323 323 322 322 324 323 324 324 324 328 327 324 323 318 320 323 324 329 330 330 330 331 332 329 325 324 323 324 324 326 328 329 329 330 329 329
319 320 321 322 323 324 324 324 324 325 324 324 324 325 326 325 327 328 328 327 321 315 318 323 324 329 330 331 332 330 329 325 325 322 322 322 323 324 324 325 325 325 325
320 320 321 322 323 324 324 324 325 327 327 325 326 327 326 327 327 327 326 326 324 323 317 324 325 327 329 330 331 328 327 326 323 321 322 321 320 320 321 321 321 322 322
319 320 322 322 323 323 323 325 325 326 326 326 326 326 325 326 325 326 326 327 324 326 320 323 326 328 327 327 327 326 327 326 324 320 321 319 317 317 318 318 318 318 319
320 321 323 323 323 323 324 325 325 326 326 325 325 325 324 325 325 325 326 324 325 326 323 319 323 324 325 325 324 323 325 324 322 321 319 318 316 315 314 314 313 313 312
320 322 323 323 322 323 322 322 323 324 326 326 326 325 325 325 324 324 325 324 325 325 325 322 321 323 323 324 321 321 319 318 319 321 317 316 314 313 313 312 311 310 309
321 322 323 323 323 324 323 322 323 325 326 326 326 326 326 326 325 324 324 324 324 323 323 322 321 319 320 320 321 320 319 320 318 317 316 314 313 312 311 311 312 313 310
322 323 324 323 324 323 323 322 322 323 325 326 326 326 326 324 321 323 325 324 324 323 322 321 319 318 317 318 320 319 319 317 318 320 318 315 316 316 314 311 313 310 306
321 323 323 324 323 324 305 311 319 322 325 326 323 323 323 320 316 313 315 316 321 323 321 322 320 319 318 320 316 318 316 317 315 318 319 315 316 312 312 312 306 304 303
320 321 320 322 323 320 302 305 311 325 324 325 324 324 325 323 323 321 312 312 313 312 316 322 322 321 319 319 317 315 316 316 317 318 320 314 314 309 310 308 303 302 301
317 317 317 320 320 317 302 303 310 325 324 325 326 326 326 324 322 324 325 324 324 323 323 323 324 323 324 321 322 320 319 318 318 316 320 313 311 310 309 310 303 302 301
314 315 316 320 320 316 300 302 317 325 325 325 326 325 325 324 305 308 324 321 316 314 304 306 306 304 303 305 313 320 319 320 318 315 313 313 310 310 310 307 306 302 300
314 314 314 318 313 318 300 302 316 323 321 321 322 321 311 318 301 304 321 316 314 312 312 308 308 307 308 307 305 323 321 318 310 311 314 312 309 309 307 308 305 304 304
Wind_Speed
5 4 4 3 3 3 3 2 2 2 3 4 4 5 5 5 5 3 3 12 14 14 14 13 15 20 23 24 25 24 21 21 19 20 20 18 17 17 17 17 17 15 14
5 4 4 4 3 3 2 2 2 2 3 3 4 5 5 4 5 5 4 5 13 13 12 14 16 20 23 25 27 26 25 21 20 19 19 20 18 17 18 18 18 16 16
6 5 4 4 3 3 4 2 2 2 2 3 5 4 4 4 5 5 4 4 5 10 10 13 15 21 22 21 28 28 26 22 21 18 17 19 17 17 18 18 17 16 15
6 5 4 4 3 3 2 3 2 2 2 3 3 3 3 3 5 5 5 4 4 3 5 10 8 15 19 28 29 29 26 23 20 22 20 19 17 17 18 18 16 15 16
5 5 4 3 3 2 3 2 1 2 2 3 3 2 3 4 5 4 5 4 3 3 3 6 6 8 12 22 29 32 32 27 24 21 22 20 18 18 17 18 16 15 15
5 5 3 3 3 2 2 2 3 3 2 2 2 3 2 3 3 3 4 2 1 3 4 4 3 4 15 23 27 31 29 27 23 23 21 20 19 18 17 18 17 15 15
4 4 3 3 3 4 3 4 3 4 2 2 3 2 1 2 1 1 1 1 1 1 1 1 2 5 8 25 26 29 28 24 24 23 19 17 17 17 18 18 16 15 14
4 4 4 3 4 3 3 4 4 3 2 3 2 2 2 2 2 2 2 1 2 2 2 6 7 10 10 11 17 27 26 25 25 23 18 14 12 15 17 16 15 14 12
3 4 4 3 4 3 3 3 4 4 3 2 1 3 2 2 1 2 2 2 3 3 3 8 8 8 11 11 16 18 25 27 25 22 18 15 14 15 15 14 13 13 11
2 3 4 4 4 3 4 4 3 2 3 3 1 2 1 2 3 2 2 1 4 4 6 7 8 9 9 9 15 21 26 25 24 21 20 18 16 15 11 11 10 9 9
2 3 3 4 4 3 3 4 4 4 2 3 3 2 1 1 2 3 3 2 3 3 4 8 9 8 7 12 11 17 21 21 19 18 19 18 17 15 13 12 11 9 8
2 2 4 3 3 3 4 4 4 4 3 2 2 2 3 3 2 2 4 3 5 2 5 5 9 7 11 11 17 21 17 13 13 13 14 13 11 12 12 12 11 9 9
2 2 3 3 1 3 4 4 4 4 4 3 3 2 2 2 2 3 5 3 3 3 3 5 7 9 10 10 12 17 19 13 12 12 10 12 10 8 10 9 9 8 6
3 2 3 2 3 4 3 4 3 3 4 3 4 3 2 3 2 6 4 5 5 3 3 3 5 11 11 9 12 16 10 13 12 11 9 7 12 12 8 9 8 6 5
2 3 2 4 4 3 3 3 2 3 3 3 4 4 2 3 4 4 4 7 4 4 2 4 3 12 9 8 11 8 8 10 10 10 10 8 8 9 9 8 7 7 7
2 3 2 4 4 4 4 5 4 3 4 3 4 6 5 4 5 5 5 5 5 6 4 2 6 11 8 8 11 8 7 9 10 7 8 9 9 9 7 7 8 6 5
3 3 3 4 3 5 4 5 4 3 5 5 5 6 7 7 7 7 5 6 7 8 9 7 8 10 11 11 8 6 5 4 4 8 7 7 8 8 7 6 6 4 6
2 3 4 4 4 4 5 6 5 5 6 5 6 7 8 7 9 8 7 8 8 7 9 13 6 5 10 9 6 6 4 3 3 6 8 9 8 8 7 4 3 3 4
4 3 3 5 5 5 5 4 4 5 6 5 6 7 8 10 9 8 8 8 8 8 9 7 5 3 5 5 4 3 3 3 2 6 8 8 6 4 3 1 2 2 4
4 4 4 5 5 5 5 5 6 6 6 6 7 7 7 10 11 11 8 9 9 9 8 9 7 6 4 3 2 3 3 1 2 1 2 2 4 4 4 4 2 4 5
4 4 6 6 5 5 4 7 8 8 6 7 8 7 6 10 10 10 8 9 10 8 7 7 5 3 3 3 4 2 3 2 1 1 2 4 3 5 6 8 9 8 8
4 4 4 6 6 4 9 9 8 7 5 7 8 8 8 10 10 12 13 9 7 9 9 6 4 6 5 4 3 3 4 2 2 1 3 6 5 7 6 6 8 10 9
3 4 4 4 5 6 8 10 9 6 5 7 8 8 8 5 9 10 12 13 11 11 5 4 8 4 4 6 6 4 3 3 2 2 4 7 3 7 5 6 8 9 9
4 4 3 3 5 4 10 10 10 8 6 7 8 10 10 7 7 9 9 7 5 4 2 2 3 4 3 6 6 4 4 5 4 4 1 4 2 4 4 5 7 10 14
3 2 3 4 6 5 6 9 8 8 8 9 8 9 9 7 7 10 7 6 3 2 5 4 4 3 5 9 7 6 4 4 3 1 2 3 3 4 3 5 6 17 19
4 4 4 3 6 6 5 8 7 5 8 5 5 5 9 6 8 7 5 4 5 4 5 6 5 6 6 4 6 3 5 6 4 2 2 2 3 3 4 2 8 9 7
Wind_Direction
217 217 226 225 231 227 230 233 237 236 221 210 190 197 209 230 245 253 261 273 271 274 259 259 225 214 199 182 157 154 152 159 170 160 158 145 135 134 135 136 126 126 126
215 215 224 225 228 208 225 230 236 214 216 190 197 204 216 227 245 251 261 261 263 274 255 258 237 218 200 180 160 160 171 166 162 159 151 145 137 143 143 133 131 132 134
216 219 219 217 220 210 222 222 222 191 189 194 213 212 219 240 251 250 255 253 259 270 258 252 249 217 191 179 170 168 159 157 149 155 149 140 142 143 139 134 132 136 133
207 210 213 215 205 211 206 212 189 196 214 201 208 225 229 246 259 255 256 246 247 259 274 259 246 232 185 201 178 157 151 149 161 163 151 143 139 138 134 139 131 144 141
198 200 205 217 204 200 205 197 194 182 190 201 222 235 245 248 257 264 244 237 230 245 268 223 250 216 184 140 148 154 150 156 163 158 142 139 143 140 139 126 146 153 138
197 194 200 205 193 193 192 170 182 192 186 187 194 221 276 268 256 247 231 202 214 270 277 265 209 169 180 160 160 152 154 153 153 152 141 143 143 141 135 148 162 152 144
199 190 196 194 185 198 195 184 173 178 180 158 125 91 64 17 317 210 153 125 151 253 258 202 85 131 141 139 144 144 150 157 159 140 132 138 140 145 154 161 163 150 152
203 182 185 194 178 180 195 183 171 141 151 174 133 130 90 11 62 78 66 151 180 102 153 138 112 123 137 137 147 151 159 155 140 131 128 125 141 162 165 163 159 157 152
200 193 181 177 181 176 187 181 176 158 134 182 195 140 133 180 131 37 99 79 120 131 124 129 125 127 135 140 153 161 151 139 133 126 135 138 172 172 172 161 165 155 153
130 158 181 178 184 172 183 187 171 166 151 150 189 208 145 156 145 141 72 130 108 122 143 128 127 124 126 140 152 132 126 127 132 147 145 173 175 171 156 173 166 160 162
139 152 153 157 164 184 192 179 163 189 183 158 159 164 129 352 65 124 130 142 82 59 110 136 136 130 133 115 120 122 128 133 147 158 168 173 171 167 169 172 170 173 179
88 115 142 169 170 184 174 179 184 186 187 179 207 171 158 133 161 134 130 136 131 82 92 114 139 130 131 118 121 130 128 132 143 155 162 145 181 165 174 178 176 184 192
107 113 134 147 139 158 162 155 168 170 181 186 199 205 117 159 164 127 133 114 119 107 131 97 131 117 120 121 131 134 138 136 137 149 144 159 140 132 188 182 189 199 197
129 134 128 132 113 93 135 147 149 161 161 144 150 150 188 177 156 139 138 123 123 75 55 88 95 120 110 122 139 135 133 141 156 141 143 153 154 194 169 190 199 195 216
131 121 118 90 76 85 113 137 143 162 143 145 140 175 151 141 147 98 136 127 126 135 110 85 82 112 120 123 122 117 145 146 134 159 168 174 173 177 180 177 194 207 217
115 112 85 84 82 76 81 102 119 134 122 118 133 140 118 136 116 107 105 97 94 125 105 72 97 117 121 101 117 113 120 138 160 167 175 179 182 186 176 187 205 220 237
136 139 114 104 105 98 99 105 102 113 111 125 120 120 105 113 109 105 106 97 92 105 102 105 108 118 111 114 110 108 130 148 162 165 174 181 185 190 187 201 223 239 261
154 165 133 117 115 112 109 123 117 101 102 96 102 98 104 109 110 109 105 103 105 105 115 118 118 127 131 126 110 120 146 154 143 165 174 190 191 195 203 212 246 282 317
144 137 128 125 130 130 118 105 96 87 81 90 101 112 123 121 115 114 115 115 113 108 106 107 106 81 100 105 106 109 133 121 126 156 184 191 187 197 206 93 50 357 341
139 135 135 127 125 122 116 107 90 97 84 86 89 91 105 119 123 129 119 116 115 117 121 120 106 84 91 91 99 131 136 168 130 140 120 94 74 90 92 103 75 33 18
131 132 121 123 128 120 120 116 113 112 87 90 93 91 94 107 112 121 128 126 128 128 130 122 113 104 114 145 167 152 107 81 85 136 120 52 54 64 65 70 79 71 68
129 126 127 136 138 125 136 124 127 126 112 112 102 102 108 99 97 104 112 99 125 135 132 132 128 145 148 146 142 137 126 156 153 74 90 69 72 82 87 85 77 82 80
136 128 114 132 134 136 143 139 129 129 110 107 111 120 110 109 115 107 89 94 97 101 89 123 144 147 147 166 144 132 157 164 116 109 104 90 88 91 79 74 69 70 59
138 135 129 130 132 138 153 133 120 119 114 106 112 118 118 113 111 111 119 118 106 79 87 124 157 174 177 158 159 152 143 112 101 78 24 114 163 103 91 87 49 57 54
122 132 138 137 127 139 141 132 114 122 120 114 113 119 126 128 129 124 122 118 95 99 51 107 91 117 150 145 145 125 126 122 92 138 65 106 151 141 135 93 69 54 49
129 124 118 133 129 146 170 140 127 121 114 115 87 102 100 126 145 131 113 133 143 157 136 113 111 86 89 145 149 78 154 144 138 93 98 102 129 174 153 90 58 55 59